Home > Weather > Colorado Springs > Past weeks

Flag for USA Weather for the Past 2 Weeks in Colorado Springs, Colorado, USA

Now
33 °F

Light snow. Fog.


Feels Like: 29 °F
Forecast: 30 / 34 °F
Wind: 5 mph from Northwest

Location: City Of Colorado Springs Municipal Airport

Current Time: Apr 29, 2016 at 8:10:13 AM

Latest Report: Apr 29, 2016 at 6:54 AM


Visibility: 1 mi

Pressure: 30.01 "Hg (23.87 "Hg at 1831m altitude)

Humidity: 92%

Dew Point: 31 °F

Location of Colorado SpringsLocation

Historic Weather in Colorado Springs — Graph

°F

Colorado Springs Temperature Yesterday

Maximum temperature yesterday: 40 °F (at 12:54 AM)
Minimum temperature yesterday: 32 °F (at 8:54 AM)
Average temperature yesterday: 36 °F

High & Low Weather Summary for the Past Weeks

 TemperatureHumidityPressure
High77 °F (Apr 23, 4:54 PM)96% (Apr 18, 11:54 PM)30.41 "Hg (Apr 18, 11:54 PM)
Low29 °F (Apr 27, 5:54 AM)11% (Apr 23, 4:54 PM)29.42 "Hg (Apr 23, 4:54 PM)
Average46 °F54%29.90 "Hg
* Reported Apr 14 6:54 AM — Apr 29 6:54 AM, Colorado Springs, Weather by CustomWeather, © 2016

Note: Actual official high and low records may vary slightly from our data, if they occured in-between our weather recording intervals... More about our weather records

Advertising

Colorado Springs Weather History for the Previous 24 Hours

Scroll right to see more
 ConditionsComfort  
Time TempWeatherWind HumidityBarometerVisibility
6:54 AM
Fri, Apr 29
33 °FLight snow. Fog.5 mph92%30.01 "Hg1 mi
5:54 AM34 °FLight snow. Overcast.6 mph85%30.01 "Hg8 mi
5:04 AM33 °FLight snow. Overcast.6 mph92%29.98 "Hg7 mi
4:54 AM34 °FLight snow. Overcast.6 mph88%30.03 "Hg8 mi
3:54 AM33 °FLight snow. Overcast.3 mph92%30.04 "Hg7 mi
2:54 AM33 °FLight snow. Fog.No wind92%30.07 "Hg1 mi
1:54 AM33 °FLight rain. Fog.No wind92%30.09 "Hg1 mi
12:54 AM33 °FLight rain. Fog.3 mph92%30.11 "Hg1 mi
11:54 PM
Thu, Apr 28
33 °FLight rain. Fog.5 mph92%30.10 "Hg2 mi
10:54 PM33 °FLight rain. Fog.No wind96%30.12 "Hg2 mi
9:54 PM36 °FLight rain. Fog.7 mph89%30.09 "Hg6 mi
8:54 PM37 °FLight rain. Mostly cloudy.5 mph82%30.07 "Hg8 mi
7:54 PM37 °FLow clouds.No wind86%30.04 "Hg10 mi
6:54 PM36 °FLight rain. Cloudy.6 mph89%30.04 "Hg8 mi
5:54 PM38 °FLight rain. Mostly cloudy.9 mph79%30.02 "Hg6 mi
4:54 PM37 °FMostly cloudy.6 mph79%30.01 "Hg10 mi
3:54 PM37 °FLight rain. Mostly cloudy.13 mph82%29.99 "Hg7 mi
2:54 PM37 °FMostly cloudy.13 mph76%30.00 "Hg10 mi
1:54 PM36 °FOvercast.13 mph79%30.00 "Hg10 mi
12:54 PM35 °FMostly cloudy.9 mph78%29.99 "Hg10 mi
11:54 AM35 °FLight snow. Cloudy.12 mph85%29.99 "Hg8 mi
10:54 AM33 °FFog.10 mph92%30.01 "Hg6 mi
9:54 AM33 °FLight snow. Fog.10 mph92%30.00 "Hg1 mi
8:54 AM32 °FSnow. Fog.12 mph92%29.98 "Hg1 mi
Weather by CustomWeather, © 2016

See weather overviewHow to use our weather pages